Regional Weather Roundup
Issued by NWS

Home | Current Version | Previous Version | Text Only | Print | Product List | Glossary Off
Versions: 1 2 3 4 5 6 7 8 9 10 11 12 13 14 15 16 17 18 19 20 21 22 23 24 25 26 27 28 29 30 31 32 33 34 35 36 37 38 39 40 41 42 43 44 45 46 47 48 49 50

000
ASUS43 KFSD 250702
RWRSD

WEATHER ROUNDUP FOR SOUTH DAKOTA
NATIONAL WEATHER SERVICE SIOUX FALLS SD
200 AM CDT TUE APR 25 2017

NOTE: "FAIR" INDICATES FEW OR NO CLOUDS BELOW 12,000 FEET WITH NO
SIGNIFICANT WEATHER AND/OR OBSTRUCTIONS TO VISIBILITY.


SDZ001>005-009-010-012>017-250800-
NORTHWEST AND NORTH CENTRAL SOUTH DAKOTA

CITY           SKY/WX    TMP DP  RH WIND       PRES   REMARKS
BUFFALO          N/A     33  30  88 E13       29.63R WCI  24
FAITH            N/A     33  32  96 NE14      29.70R WCI  23
MOBRIDGE       CLOUDY    36  29  75 N13       29.68S
$$

SDZ012>016-024>037-041>051-057-063-072>074-250800-
SOUTHWEST AND SOUTH CENTRAL SOUTH DAKOTA

CITY           SKY/WX    TMP DP  RH WIND       PRES   REMARKS
RAPID CTY ARPT LGT RAIN  37  34  89 NE12      29.65S
PIERRE         CLOUDY    37  32  82 N17       29.66S
CUSTER         SNOW      34  33  96 E12       29.59F VSB 1/4 WCI  25
ELLSWORTH AFB  LGT RAIN  38  37  94 NE12      29.64
PHILIP         CLOUDY    39  35  86 NE13      29.67R
PINE RIDGE     RAIN      45  43  93 E7        29.59S
SPEARFISH      CLOUDY    36  36 100 E17       29.63S FOG
WINNER         PTSUNNY   37  35  92 NW7       29.65R
$$

SDZ004>011-016>023-039-040-250800-
NORTHEAST SOUTH DAKOTA

CITY           SKY/WX    TMP DP  RH WIND       PRES   REMARKS
ABERDEEN       CLOUDY    35  30  82 N14G25    29.66S WCI  26
WATERTOWN      CLOUDY    37  35  92 N12       29.57F
BROOKINGS      CLOUDY    40  36  86 N13       29.57S
SISSETON         N/A     36  35  96 N24       29.60S
$$

SDZ017-020-022-023-036>040-048>070-250800-
SOUTHEAST SOUTH DAKOTA

CITY           SKY/WX    TMP DP  RH WIND       PRES   REMARKS
SIOUX FALLS    CLEAR     42  38  85 N9        29.57R
HURON          CLOUDY    38  35  89 N15       29.62S
CHAMBERLAIN    CLOUDY    41  37  85 N10       29.66R
MITCHELL       CLOUDY    42  37  82 N12       29.64R
YANKTON        CLEAR     43  36  75 NW15      29.60R
$$

ABBREVIATIONS USED IN REMARKS
   TC - TEMPERATURE IN CELSIUS
  WCI - WIND CHILL INDEX
   HX - HEAT INDEX
  VSB - VISIBILITY




USA.gov is the U.S. government's official web portal to all federal, state and local government web resources and services.